MUCC

Details ICAO MUCC
Name JARDINES DEL REY
Region Cuba
Timezone America/Havana (UTC-4.0)
Plans Departing 42
Arriving 102
Stats Elevation 13 ft / 4 m (AMSL)
Location 22.460945° -78.328602°
Runways 1
Magnetic Variation 7.361° W
Sunrise 2018-05-20 10:32:45 UTC / 2018-05-20 06:32:45 Local
Sunset 2018-05-20 23:49:48 UTC / 2018-05-20 19:49:48 Local
Advertisement - Login to hide

Runways

ID Width Length Bearing (true) Bearing (mag) Surface Threshold Offset Overrun Length
08 148 ft / 45 m 9,835 ft / 2,998 m 70.91° 78.27° Asphalt 0 ft / 0 m 0 ft / 0 m
26 148 ft / 45 m 9,835 ft / 2,998 m 250.92° 258.28° Asphalt 0 ft / 0 m 0 ft / 0 m

Approach Navaids

Runway Type Ident Frequency Range Bearing (true) Bearing (mag) Slope Elevation
08 Localiser ICJ 109.90 MHz 18 nm / 33 km 70.92° 78.28° - 13 ft / 4 m (AMSL)
08 Glidescope ICJ 109.90 MHz 10 nm / 19 km 70.92° 78.28° 3.00° 98 ft / 30 m (AMSL)

Map

Weather


0- 5 10 15 20 25 30 35+ Temperature / ° C

Clouds and Precipitation
Forecast for 2018-05-20 18:00 UTC. Updated 4 hours ago

Ground ~20,000 ft ~40,000 ft Winds

METAR

MUCC 202051Z 10011KT 070V130 9000 BKN020 28/24 Q1014

TAF

Not found

Frequencies

Tower 118.80 MHz APP/TWR
Warning: Do not use this data for real-world aviation or navigation. No guarantee of current accuracy is given.